Regional Weather Roundup
Issued by NWS

Home | Current Version | Previous Version | Text Only | Print | Product List | Glossary Off
Versions: 1 2 3 4 5 6 7 8 9 10 11 12 13 14 15 16 17 18 19 20 21 22 23 24 25 26 27 28 29 30 31 32 33 34 35 36 37 38 39 40 41 42 43 44 45 46 47 48 49 50

000
ASUS43 KMKX 300400
RWRWI

WISCONSIN REGIONAL WEATHER ROUNDUP
NATIONAL WEATHER SERVICE MILWAUKEE/SULLIVAN WI
1100 PM CDT WED OCT 29 2014

NOTE: "FAIR" INDICATES FEW OR NO CLOUDS BELOW 12,000 FEET WITH NO
SIGNIFICANT WEATHER AND/OR OBSTRUCTIONS TO VISIBILITY.

WIZ001-002-006>008-014>016-023>028-300500-
NORTHWEST WISCONSIN

CITY           SKY/WX    TMP DP  RH WIND       PRES   REMARKS
SUPERIOR ARPT  CLOUDY    39  33  78 W5        30.09S
ASHLAND        CLOUDY    40  33  76 W6        30.09S
HAYWARD        CLOUDY    39  31  72 SW3       30.08S
SIREN          CLOUDY    38  32  78 W3        30.09S
CUMBERLAND     MOCLDY    34  30  86 CALM      30.09R
RICE LAKE      MOCLDY    35  31  87 CALM      30.10F
CHETEK         MOCLDY    33  31  92 CALM      30.10R
LADYSMITH      CLOUDY    40  34  78 CALM      30.10S
EAU CLAIRE     NOT AVBL
MENOMONIE      MOCLDY    37  32  82 CALM      30.11R
NEW RICHMOND   MOCLDY    33  32  96 CALM      30.10S
OSCEOLA        CLOUDY    35  32  88 CALM      30.12S
$$

WIZ003>005-009-010-017-018-300500-
NORTH CENTRAL WISCONSIN

CITY           SKY/WX    TMP DP  RH WIND       PRES   REMARKS
MANITOWISH WTR CLOUDY    36  32  85 SW5       30.06S WCI  32
ARBOR VITAE    CLOUDY    39  33  79 CALM      30.07R
WOODRUFF       CLOUDY    39  33  79 CALM      30.07R
RHINELANDER    CLOUDY    38  31  76 W5        30.08R WCI  34
EAGLE RIVER    CLOUDY    38  31  76 CALM      30.06S
LAND O LAKES   CLOUDY    38  34  85 CALM      30.06S
PHILLIPS       CLOUDY    37  31  81 SW6       30.08S WCI  32
TOMAHAWK       CLOUDY    37  31  78 CALM      30.09R
MEDFORD        CLOUDY    37  32  83 W3        30.08S
MERRILL        CLEAR     34  31  90 W3        30.09R
$$

WIZ029-030-035-036-043>047-300500-
CENTRAL WISCONSIN

CITY           SKY/WX    TMP DP  RH WIND       PRES   REMARKS
WAUSAU         CLEAR     35  31  85 CALM      30.08S
MOSINEE        CLEAR     34  32  93 NW7       30.10S WCI  28
MARSHFIELD     PTCLDY    32  30  92 CALM      30.09S
STEVENS POINT  CLEAR     27  26  95 CALM      30.10S
WAUPACA        PTCLDY    34  32  91 CALM      30.12R
WAUTOMA        NOT AVBL
WISC RAPIDS    PTCLDY    31  28  89 CALM      30.12R
CAMP DOUGLAS   NOT AVBL
$$

WIZ011>013-019>022-031-037>040-048>050-300500-
NORTHEAST WISCONSIN

CITY           SKY/WX    TMP DP  RH WIND       PRES   REMARKS
ANTIGO         PTCLDY    33  32  94 SW3       30.08S
SHAWANO        CLOUDY    43  35  73 CALM      30.11R
OCONTO         CLOUDY    43  35  72 NW3       30.10R
STURGEON BAY   CLOUDY    45  34  65 NW8       30.09S
GREEN BAY      CLOUDY    44  36  73 W6        30.11R
MANITOWOC      NOT AVBL
APPLETON       PTCLDY    37  30  75 W6        30.11R WCI  33
CLINTONVILLE   CLOUDY    41  34  75 W3        30.10S
OSHKOSH        CLEAR     37  32  82 SW5       30.11R WCI  33
$$

WIZ032>034-041-042-053>061-300500-
SOUTHWEST WISCONSIN

CITY           SKY/WX    TMP DP  RH WIND       PRES   REMARKS
LA CROSSE      PTCLDY    37  32  82 SE5       30.12S WCI  33
SPARTA         MOCLDY    30  29  94 CALM      30.13R
VIROQUA        PTCLDY    35  32  87 CALM      30.11R
BOSCOBEL       PTCLDY    32  29  88 CALM      30.14S
PRAIRIE DU CHI PTCLDY    34  30  87 CALM      30.14R
PLATTEVILLE    CLEAR     37  31  81 S3        30.14R
$$

WIZ056-057-062-063-064-067-068-300500-
SOUTH CENTRAL WISCONSIN

CITY           SKY/WX    TMP DP  RH WIND       PRES   REMARKS
REEDSBURG      CLEAR     32  31  95 CALM      30.12S
BARABOO/DELLS  CLEAR     33  30  89 CALM      30.12R
LONE ROCK      NOT AVBL
MINERAL POINT  CLEAR     37  32  81 CALM      30.12S
MADISON        CLEAR     33  30  88 CALM      30.13R
MIDDLETON      CLEAR     33  32  96 CALM      30.12S
WATERTOWN      CLEAR     31  29  91 CALM      30.12R
MONROE         CLEAR     37  32  81 W7        30.12R WCI  32
JANESVILLE     CLEAR     36  32  87 S3        30.12S
$$

WIZ051-052-058>065-066-070>072-300500-
SOUTHEAST WISCONSIN

CITY           SKY/WX    TMP DP  RH WIND       PRES   REMARKS
MILWAUKEE      CLEAR     37  30  75 CALM      30.12F
WAUKESHA       CLEAR     32  30  93 CALM      30.13S
MILWAUKEE/TIMM CLEAR     36  32  87 CALM      30.12F
RACINE         CLEAR     39  33  79 CALM      30.13F
BURLINGTON     CLEAR     29  28  96 SW3       30.12F
KENOSHA        CLEAR     35  31  85 SW3       30.12F
FOND DU LAC    CLEAR     32  29  88 SW3       30.12R
SHEBOYGAN      CLEAR     39  33  79 CALM      30.11S
WEST BEND      CLEAR     34  30  86 CALM      30.11S
JUNEAU         CLEAR     33  31  90 CALM      30.12S
$$

LSZ147-162-300500-
LAKE SUPERIOR

STATION/POSITION TIME  TEMP    WIND        PRES    WAVE
                       AIR SEA DIR/SP/G            HT/PER
                 (UTC) (F)     (DEG/KT/KT) (MB)    (FT/S)
W MID LAKE BUOY  0250   44 45  260/  8/ 10 1018.1R   1/ 4
DEVILS ISLAND    0300   44     270/  6/  8 1018.6R
PORT WING        0340   41     220/  6/  8 1018.6S
SAXON HARBOR     0300   42      CALM  /  3 1018.6S
$$

LMZ867-665-643>646-300500-
LAKE MICHIGAN

STATION/POSITION TIME  TEMP    WIND        PRES    WAVE
                       AIR SEA DIR/SP/G            HT/PER
                 (UTC) (F)     (DEG/KT/KT) (MB)    (FT/S)
CHAMBERS ISLAND  0300   46     310/  9/ 13 1018.6R
N MID LAKE BUOY  0250   44 51   10/  8/ 10 1018.9R   2/ 4
NORTHPORT PIER   0300   44      30/  6/  8 1019.0R
KEWAUNEE LAKESHO 0300   46     250/  5/  7 1018.0R
SHEBOYGAN LAKESH 0300   46 50  280/  4/  5 1020.3R
PORT WASHINGTON  0340   40     270/  3/  4 1020.7R
ATWATER BUOY     0300   47     350/  2/  4 1021.1S
MILWAUKEE LAKESH 0300   46     350/  2/  3   N/A
S MID LAKE BUOY  0250   48 53  280/  6/ 10 1020.4R   2/ 5
KENOSHA   LAKESH 0300   44     270/  5/  6 1020.0S
$$

TC  - TEMPERATURE IN CELSIUS
VSB - VISIBILITY IN STATUTE MILES
WCI - WIND CHILL INDEX
HX  - HEAT INDEX




USA.gov is the U.S. government's official web portal to all federal, state and local government web resources and services.